Tracking 19164 objects as of 20-May-2018
HD Live streaming from Space Station
objects crossing your sky now

COSMOS 1479

Track COSMOS 1479 now!
10-day predictions
COSMOS 1479 is classified as:


NORAD ID: 14177
Int'l Code: 1983-069G
Perigee: 1,469.8 km
Apogee: 1,506.5 km
Inclination: 74.0 °
Period: 115.6 minutes
Semi major axis: 7859 km
RCS: 0.7305 m2 (medium)
Launch date: July 6, 1983
Source: Commonwealth of Independent States (former USSR) (CIS)
Launch site: PLESETSK MISSILE AND SPACE COMPLEX (PKMTR)
aabbcc
Your satellite tracking list
Your tracking list is empty




NASA's NSSDC Master Catalog

Two Line Element Set (TLE):
1 14177U 83069G   18140.19892473 -.00000003 +00000-0 +89111-4 0  9991
2 14177 074.0279 055.6304 0023319 000.3103 110.7007 12.46060312586234
Source of the keplerian elements: AFSPC